WB7TUJ Weather Reports


Display with metric or nautical units.
time (UTC)temp
F
wind
direction
speed
MPH
gust
MPH
rain 1hr
in
rain 24hr
in
rain mn
in
humidity
%
barometer
mb
20260504210048 76 283 1.0 15.0 0.00 0.00 0.00 42 967.4
20260504204551 77 245 3.0 12.0 0.00 0.00 0.00 38 967.5
20260504203035 77 190 4.0 11.0 0.00 0.00 0.00 40 967.3
20260504201531 76 200 3.0 12.0 0.00 0.00 0.00 41 967.4
20260504200031 76 285 0.0 7.0 0.00 0.00 0.00 42 967.4
20260504194530 76 257 1.0 10.0 0.00 0.00 0.00 43 967.3
20260504193031 76 259 7.0 13.0 0.00 0.00 0.00 44 967.9
20260504191531 75 294 7.0 13.0 0.00 0.00 0.00 44 967.9
20260504190028 75 214 1.0 8.0 0.00 0.00 0.00 45 967.4
20260504184529 74 292 1.0 10.0 0.00 0.00 0.00 46 967.3
20260504183128 75 290 1.0 11.0 0.00 0.00 0.00 45 967.8
20260504181527 75 238 4.0 11.0 0.00 0.00 0.00 39 968.2
20260504180026 75 214 9.0 16.0 0.00 0.00 0.00 36 967.8
20260504174525 0 224 4.0 14.0 0.00 0.00 0.00 37 967.7
20260504173023 75 148 0.0 14.0 0.00 0.00 0.00 37 967.4
20260504171523 75 160 4.0 13.0 0.00 0.00 0.00 36 967.9
20260504081533 76 148 0.0 0.0 0.00 0.00 0.00 41 965.5
20260504050015 81 126 7.0 14.0 0.00 0.00 0.00 29 965.3
20260504044517 81 180 11.0 21.0 0.00 0.00 0.00 28 965.2
20260504043015 82 202 8.0 16.0 0.00 0.00 0.00 26 965.2
20260504041534 82 191 9.0 17.0 0.00 0.00 0.00 26 964.8
20260504040020 83 182 8.0 21.0 0.00 0.00 0.00 26 964.6
20260504034513 83 166 11.0 23.0 0.00 0.00 0.00 25 964.3
20260504033013 84 191 12.0 17.0 0.00 0.00 0.00 24 963.7
20260504031512 84 191 11.0 18.0 0.00 0.00 0.00 23 963.5
20260504030011 85 211 11.0 24.0 0.00 0.00 0.00 22 963.2
20260504024511 86 203 12.0 23.0 0.00 0.00 0.00 22 962.8
20260504023011 87 200 15.0 24.0 0.00 0.00 0.00 21 962.5
20260504021509 87 205 13.0 27.0 0.00 0.00 0.00 21 962.2
20260504020011 88 175 20.0 30.0 0.00 0.00 0.00 21 961.8
20260504014511 90 182 12.0 18.0 0.00 0.00 0.00 19 961.7
20260504013007 91 219 10.0 17.0 0.00 0.00 0.00 18 961.4
20260504011506 91 172 9.0 19.0 0.00 0.00 0.00 18 961.5
20260504010010 92 217 13.0 21.0 0.00 0.00 0.00 18 961.5
20260504004510 93 236 11.0 21.0 0.00 0.00 0.00 18 961.5
20260504003005 93 229 10.0 18.0 0.00 0.00 0.00 18 961.4
20260504001511 94 153 5.0 19.0 0.00 0.00 0.00 18 961.4
20260504000002 94 217 10.0 21.0 0.00 0.00 0.00 18 961.4
20260503234502 94 194 8.0 19.0 0.00 0.00 0.00 18 961.3
20260503233100 95 190 6.0 17.0 0.00 0.00 0.00 18 961.5
20260503231558 93 76 5.0 10.0 0.00 0.00 0.00 19 961.6
20260503230105 94 198 8.0 11.0 0.00 0.00 0.00 19 961.8
20260503224601 94 215 0.0 15.0 0.00 0.00 0.00 19 962.2
20260503223051 94 228 5.0 13.0 0.00 0.00 0.00 20 962.4
20260503221559 94 190 5.0 17.0 0.00 0.00 0.00 19 962.6
20260503220047 93 221 5.0 20.0 0.00 0.00 0.00 20 962.9
20260503214544 93 261 6.0 16.0 0.00 0.00 0.00 19 963.2
20260503213142 92 146 2.0 17.0 0.00 0.00 0.00 21 963.4
20260503211539 92 145 5.0 21.0 0.00 0.00 0.00 21 963.7